This demonstration page uses our WeatherBlox Daily Observations layout. Learn more.

Hourly Observations for March 1, 2015

Temp ( °F °C ) Dew Point ( °F °C ) Humidity (%) Winds ( mph kmh ) Pressure ( in mb ) Visibility ( mi km ) Precip ( " mm )
12:15 am 00:15 Clear 13 -10.6 10 -12.1 89 89 SSW 5 7 30.45 1031 10 16.0934 0 0
12:35 am 00:35 Clear 13 -10.4 11 -11.8 90 90 Calm 30.42 1030 10 16.0934 0 0
12:55 am 00:55 Partly Cloudy 14 -9.8 11 -11.4 88 88 Calm 30.42 1030 10 16.0934 0 0
1:15 am 01:15 Mostly Cloudy 14 -10.2 11 -11.9 88 88 Calm 30.39 1029 10 16.0934 0 0
1:35 am 01:35 Partly Cloudy 15 -9.7 12 -11.2 89 89 S 5 7 30.42 1030 10 16.0934 0 0
1:55 am 01:55 Mostly Cloudy 17 -8.5 14 -10 89 89 S 3 6 30.39 1029 10 16.0934 0 0
2:15 am 02:15 Partly Cloudy 16 -9 13 -10.5 89 89 SSW 6 9 30.42 1030 10 16.0934 0 0
2:35 am 02:35 Clear 14 -9.8 12 -11.3 89 89 SW 5 7 30.42 1030 10 16.0934 0 0
2:55 am 02:55 Mostly Cloudy 16 -9.1 13 -10.5 90 90 SSW 5 7 30.42 1030 10 16.0934 0 0
3:15 am 03:15 Cloudy 17 -8.5 14 -10 89 89 SSW 5 7 30.42 1030 10 16.0934 0 0
3:35 am 03:35 Cloudy 17 -8.1 15 -9.6 89 89 SSW 3 6 30.42 1030 10 16.0934 0 0
3:55 am 03:55 Cloudy 18 -7.6 16 -9.1 89 89 SW 3 6 30.42 1030 10 16.0934 0 0
4:15 am 04:15 Cloudy 19 -7.3 16 -9.1 87 87 WSW 3 6 30.39 1029 10 16.0934 0 0
4:35 am 04:35 Cloudy 19 -7.2 15 -9.2 86 86 WSW 3 6 30.39 1029 10 16.0934 0 0
4:55 am 04:55 Cloudy 19 -7.3 15 -9.2 86 86 Calm 30.39 1029 10 16.0934 0 0
5:15 am 05:15 Cloudy 18 -7.6 15 -9.5 86 86 Calm 30.42 1030 10 16.0934 0 0
5:35 am 05:35 Mostly Cloudy 17 -8.5 13 -10.3 87 87 WSW 3 6 30.42 1030 10 16.0934 0 0
5:55 am 05:55 Partly Cloudy 16 -9 13 -10.6 88 88 Calm 30.42 1030 10 16.0934 0 0
6:15 am 06:15 Clear 15 -9.6 12 -11 90 90 W 5 7 30.45 1031 10 16.0934 0 0
6:35 am 06:35 Partly Cloudy 12 -11 10 -12.3 90 90 NW 7 11 30.48 1032 7 11.26538 0 0
6:55 am 06:55 Mostly Cloudy 12 -11 10 -12.2 91 91 WNW 5 7 30.48 1032 10 16.0934 0 0
7:15 am 07:15 Mostly Cloudy 12 -11.1 10 -12.5 90 90 W 5 7 30.48 1032 7 11.26538 0 0
7:35 am 07:35 Cloudy 15 -9.5 13 -10.5 93 93 W 5 7 30.45 1031 7 11.26538 0 0
7:55 am 07:55 Cloudy 16 -8.9 14 -10.1 91 91 W 6 9 30.48 1032 7 11.26538 0 0
8:15 am 08:15 Cloudy 17 -8.1 15 -9.5 90 90 W 5 7 30.48 1032 10 16.0934 0 0
8:35 am 08:35 Cloudy 19 -7.5 16 -9.1 88 88 WNW 3 6 30.48 1032 10 16.0934 0 0
8:55 am 08:55 Partly Cloudy 20 -6.6 17 -8.6 86 86 WNW 7 11 30.48 1032 10 16.0934 0 0
9:15 am 09:15 Sunny 22 -5.5 18 -8 83 83 NW 6 9 30.45 1031 10 16.0934 0 0
9:35 am 09:35 Sunny 25 -3.7 17 -8.1 72 72 NNW 8 13 30.48 1032 10 16.0934 0 0
9:55 am 09:55 Sunny 27 -2.8 17 -8.6 65 65 N 7 11 30.45 1031 10 16.0934 0 0
10:15 am 10:15 Sunny 28 -2.1 15 -9.3 58 58 NNW 6 9 30.45 1031 10 16.0934 0 0
10:35 am 10:35 Sunny 29 -1.6 15 -9.5 55 55 NW 6 9 30.45 1031 10 16.0934 0 0
10:55 am 10:55 Sunny 31 -0.7 15 -9.5 52 52 NNW 3 6 30.45 1031 10 16.0934 0 0
11:15 am 11:15 Sunny 32 -0.1 14 -9.9 48 48 N 3 6 30.42 1030 10 16.0934 0 0
11:35 am 11:35 Sunny 32 0.1 14 -9.8 48 48 N 6 9 30.42 1030 10 16.0934 0 0
11:55 am 11:55 Sunny 32 0.2 13 -10.8 44 44 NNW 8 13 30.42 1030 10 16.0934 0 0
12:15 pm 12:15 Sunny 33 0.8 12 -10.9 42 42 N 5 7 30.42 1030 10 16.0934 0 0
12:35 pm 12:35 Sunny 35 1.5 12 -11.2 39 39 NNE 7 11 30.42 1030 10 16.0934 0 0
1:15 pm 13:15 Sunny 35 1.8 11 -11.9 36 36 N 8 13 30.42 1030 10 16.0934 0 0
1:35 pm 13:35 Sunny 35 1.9 10 -12.1 35 35 N 12 19 30.42 1030 10 16.0934 0 0
1:55 pm 13:55 Sunny 36 2.4 10 -12.1 34 34 NNW 9 15 30.39 1029 10 16.0934 0 0
2:15 pm 14:15 Sunny 37 2.8 10 -12 33 33 N 7 11 30.36 1028 10 16.0934 0 0
2:35 pm 14:35 Sunny 37 2.9 10 -12.2 32 32 NNE 3 6 30.36 1028 10 16.0934 0 0
2:55 pm 14:55 Sunny 38 3.3 10 -12.5 31 31 NNE 7 11 30.36 1028 10 16.0934 0 0
3:15 pm 15:15 Sunny 38 3.3 9 -12.6 30 30 NW 5 7 30.36 1028 10 16.0934 0 0
3:35 pm 15:35 Sunny 38 3.3 9 -12.9 30 30 NW 3 6 30.36 1028 10 16.0934 0 0
3:55 pm 15:55 Sunny 38 3.1 9 -12.8 30 30 N 6 9 30.36 1028 10 16.0934 0 0
4:15 pm 16:15 Sunny 39 3.7 9 -12.6 30 30 N 9 15 30.36 1028 10 16.0934 0 0
4:35 pm 16:35 Sunny 38 3.6 9 -12.7 30 30 NNE 9 15 30.36 1028 10 16.0934 0 0
4:55 pm 16:55 Sunny 38 3.1 9 -12.8 30 30 NNE 7 11 30.36 1028 10 16.0934 0 0
5:15 pm 17:15 Sunny 38 3.5 10 -12.5 30 30 NNW 5 7 30.36 1028 10 16.0934 0 0
5:35 pm 17:35 Sunny 37 3 9 -12.6 31 31 Calm 30.39 1029 10 16.0934 0 0
5:55 pm 17:55 Cloudy 22 -5.6 13 -10.5 69 69 S 8 13 30.36 1028 10 16.0934 0 0
6:15 pm 18:15 Sunny 35 1.5 9 -12.8 34 34 NE 3 6 30.42 1030 10 16.0934 0 0
6:35 pm 18:35 Clear 34 0.9 8 -13.2 34 34 NE 5 7 30.42 1030 10 16.0934 0 0
6:55 pm 18:55 Clear 30 -1 8 -13.5 38 38 Calm 30.45 1031 10 16.0934 0 0
7:15 pm 19:15 Clear 31 -0.7 9 -12.9 40 40 Calm 30.45 1031 10 16.0934 0 0
7:35 pm 19:35 Clear 30 -1.3 9 -12.9 41 41 SSE 3 6 30.48 1032 10 16.0934 0 0
7:55 pm 19:55 Clear 28 -2.3 9 -13 44 44 Calm 30.48 1032 10 16.0934 0 0
8:15 pm 20:15 Clear 27 -3 8 -13.3 45 45 SE 3 6 30.48 1032 10 16.0934 0 0
8:35 pm 20:35 Clear 28 -2.5 9 -12.8 45 45 SSE 3 6 30.48 1032 10 16.0934 0 0
8:55 pm 20:55 Clear 27 -3 9 -12.6 48 48 Calm 30.48 1032 10 16.0934 0 0
9:15 pm 21:15 Clear 26 -3.5 9 -12.6 50 50 Calm 30.48 1032 10 16.0934 0 0
9:35 pm 21:35 Clear 27 -3 11 -11.7 52 52 Calm 30.5 1033 10 16.0934 0 0
9:55 pm 21:55 Clear 26 -3.2 10 -12 51 51 Calm 30.5 1033 10 16.0934 0 0
10:15 pm 22:15 Clear 25 -3.7 11 -11.6 55 55 Calm 30.53 1034 10 16.0934 0 0
10:35 pm 22:35 Clear 26 -3.5 9 -12.6 50 50 Calm 30.5 1033 10 16.0934 0 0
10:55 pm 22:55 Clear 26 -3.1 9 -12.6 48 48 Calm 30.56 1035 10 16.0934 0 0
11:15 pm 23:15 Clear 28 -2.5 10 -12.1 48 48 NNE 3 6 30.53 1034 10 16.0934 0 0
11:35 pm 23:35 Clear 26 -3.5 11 -11.9 53 53 Calm 30.5 1033 10 16.0934 0 0
11:55 pm 23:55 Clear 25 -3.7 10 -12.3 52 52 NE 3 6 30.53 1034 10 16.0934 0 0

Powered by AerisWeather